• en France
  • Liste des pays
  • À 7 jours
  • Température de l'eau
  • Carte satellitaire
  • Carte météo
  • Widgets météo
  • user-avatar
    Se connecter

    Météo par heure à Manizales

    Ce jour, 14 Décembre, Jeudi

    Heure Température Précipitation Vent Pression Humidité
    00:00 +14°C° 0 mm 1 m/s 602 mmHg 85%
    01:00 +14°C° 0 mm 1 m/s 602 mmHg 86%
    02:00 +14°C° 0 mm 1 m/s 602 mmHg 85%
    03:00 +14°C° 0 mm 1 m/s 602 mmHg 85%
    04:00 +14°C° 0 mm 1 m/s 602 mmHg 85%
    05:00 +14°C° 0 mm 1 m/s 602 mmHg 83%
    06:00 +15°C° 0 mm 1 m/s 602 mmHg 80%
    07:00 +15°C° 0 mm 1 m/s 603 mmHg 78%
    08:00 +19°C° 0 mm 1 m/s 604 mmHg 67%
    09:00 +22°C° 0 mm 1 m/s 605 mmHg 55%
    10:00 +24°C° 0 mm 1 m/s 606 mmHg 44%
    11:00 +25°C° 0 mm 1 m/s 606 mmHg 42%
    12:00 +26°C° 0 mm 1 m/s 606 mmHg 41%
    13:00 +27°C° 0 mm 1 m/s 605 mmHg 39%
    14:00 +26°C° 0,1 mm 1 m/s 605 mmHg 41%
    15:00 +25°C° 0,1 mm 1 m/s 604 mmHg 43%
    16:00 +24°C° 0,1 mm 1 m/s 603 mmHg 46%
    17:00 +22°C° 0,1 mm 1 m/s 603 mmHg 54%
    18:00 +19°C° 0,1 mm 1 m/s 602 mmHg 63%
    19:00 +16°C° 0,1 mm 1 m/s 602 mmHg 72%
    20:00 +16°C° 0 mm 1 m/s 602 mmHg 73%
    21:00 +15°C° 0 mm 1 m/s 602 mmHg 73%
    22:00 +15°C° 0 mm 1 m/s 602 mmHg 74%
    23:00 +14°C° 0 mm 1 m/s 602 mmHg 71%

    Demain, 15 Décembre, Vendredi

    Heure Température Précipitation Vent Pression Humidité
    00:00 +14°C° 0 mm 1 m/s 602 mmHg 68%
    01:00 +14°C° 0 mm 1 m/s 602 mmHg 66%
    02:00 +13°C° 0 mm 1 m/s 602 mmHg 65%
    03:00 +13°C° 0 mm 1 m/s 602 mmHg 64%
    04:00 +13°C° 0 mm 1 m/s 601 mmHg 63%
    05:00 +14°C° 0 mm 1 m/s 602 mmHg 63%
    06:00 +14°C° 0 mm 1 m/s 602 mmHg 63%
    07:00 +14°C° 0 mm 1 m/s 603 mmHg 63%
    08:00 +19°C° 0 mm 1 m/s 604 mmHg 54%
    09:00 +22°C° 0 mm 1 m/s 605 mmHg 45%
    10:00 +25°C° 0 mm 1 m/s 607 mmHg 36%
    11:00 +26°C° 0 mm 1 m/s 606 mmHg 35%
    12:00 +27°C° 0 mm 1 m/s 606 mmHg 34%
    13:00 +28°C° 0 mm 1 m/s 606 mmHg 33%
    14:00 +27°C° 0,1 mm 1 m/s 605 mmHg 35%
    15:00 +26°C° 0,1 mm 1 m/s 604 mmHg 38%
    16:00 +25°C° 0,1 mm 1 m/s 603 mmHg 41%
    17:00 +22°C° 0,1 mm 1 m/s 603 mmHg 50%
    18:00 +20°C° 0,1 mm 1 m/s 602 mmHg 59%
    19:00 +16°C° 0,1 mm 1 m/s 602 mmHg 67%
    20:00 +16°C° 0 mm 1 m/s 602 mmHg 68%
    21:00 +16°C° 0 mm 1 m/s 602 mmHg 69%
    22:00 +15°C° 0 mm 1 m/s 603 mmHg 70%
    23:00 +15°C° 0 mm 1 m/s 603 mmHg 69%

    Après-demain, 16 Décembre, Samedi

    Heure Température Précipitation Vent Pression Humidité
    00:00 +15°C° 0 mm 1 m/s 602 mmHg 68%
    01:00 +14°C° 0 mm 1 m/s 602 mmHg 67%
    02:00 +14°C° 0 mm 1 m/s 602 mmHg 66%
    03:00 +14°C° 0 mm 1 m/s 602 mmHg 66%
    04:00 +14°C° 0 mm 1 m/s 601 mmHg 65%
    05:00 +14°C° 0 mm 1 m/s 602 mmHg 65%
    06:00 +14°C° 0 mm 1 m/s 602 mmHg 64%
    07:00 +15°C° 0 mm 1 m/s 603 mmHg 63%
    08:00 +19°C° 0 mm 1 m/s 604 mmHg 55%
    09:00 +22°C° 0 mm 1 m/s 605 mmHg 47%
    10:00 +25°C° 0 mm 1 m/s 607 mmHg 39%
    11:00 +26°C° 0 mm 1 m/s 606 mmHg 38%
    12:00 +27°C° 0 mm 1 m/s 606 mmHg 37%
    13:00 +28°C° 0 mm 1 m/s 606 mmHg 36%
    14:00 +27°C° 0,1 mm 1 m/s 605 mmHg 39%
    15:00 +25°C° 0,1 mm 1 m/s 604 mmHg 42%
    16:00 +24°C° 0,1 mm 1 m/s 603 mmHg 46%
    17:00 +22°C° 0 mm 1 m/s 602 mmHg 54%
    18:00 +20°C° 0 mm 1 m/s 602 mmHg 63%
    19:00 +16°C° 0 mm 1 m/s 601 mmHg 71%
    20:00 +16°C° 0 mm 1 m/s 602 mmHg 72%
    21:00 +15°C° 0 mm 1 m/s 602 mmHg 73%
    22:00 +15°C° 0 mm 1 m/s 602 mmHg 74%
    23:00 +15°C° 0 mm 1 m/s 602 mmHg 73%

    17 Décembre, Dimanche

    Heure Température Précipitation Vent Pression Humidité
    00:00 +14°C° 0 mm 1 m/s 602 mmHg 71%
    01:00 +14°C° 0 mm 1 m/s 601 mmHg 70%
    02:00 +14°C° 0 mm 1 m/s 601 mmHg 69%
    03:00 +14°C° 0 mm 1 m/s 601 mmHg 68%
    04:00 +14°C° 0 mm 1 m/s 601 mmHg 67%
    05:00 +14°C° 0 mm 1 m/s 601 mmHg 66%
    06:00 +14°C° 0 mm 1 m/s 602 mmHg 65%
    07:00 +15°C° 0 mm 1 m/s 602 mmHg 64%
    08:00 +19°C° 0 mm 1 m/s 604 mmHg 55%
    09:00 +22°C° 0 mm 1 m/s 605 mmHg 46%
    10:00 +26°C° 0 mm 1 m/s 607 mmHg 38%
    11:00 +26°C° 0 mm 1 m/s 606 mmHg 35%
    12:00 +27°C° 0 mm 1 m/s 606 mmHg 33%
    13:00 +28°C° 0 mm 1 m/s 605 mmHg 31%
    14:00 +27°C° 0 mm 1 m/s 605 mmHg 33%
    15:00 +27°C° 0 mm 1 m/s 604 mmHg 34%
    16:00 +26°C° 0 mm 1 m/s 603 mmHg 36%
    17:00 +23°C° 0 mm 1 m/s 602 mmHg 44%
    18:00 +20°C° 0 mm 1 m/s 602 mmHg 52%
    19:00 +16°C° 0 mm 1 m/s 601 mmHg 61%
    20:00 +16°C° 0 mm 1 m/s 601 mmHg 58%
    21:00 +15°C° 0 mm 1 m/s 602 mmHg 55%
    22:00 +15°C° 0 mm 1 m/s 602 mmHg 52%
    23:00 +15°C° 0 mm 1 m/s 602 mmHg 51%

    18 Décembre, Lundi

    Heure Température Précipitation Vent Pression Humidité
    00:00 +14°C° 0 mm 1 m/s 601 mmHg 49%
    01:00 +14°C° 0 mm 1 m/s 601 mmHg 47%
    02:00 +14°C° 0 mm 1 m/s 601 mmHg 47%
    03:00 +13°C° 0 mm 1 m/s 601 mmHg 46%
    04:00 +13°C° 0 mm 1 m/s 600 mmHg 46%
    05:00 +13°C° 0 mm 1 m/s 601 mmHg 47%
    06:00 +14°C° 0 mm 1 m/s 601 mmHg 47%
    07:00 +14°C° 0 mm 1 m/s 602 mmHg 48%
    08:00 +19°C° 0 mm 1 m/s 603 mmHg 40%
    09:00 +22°C° 0 mm 1 m/s 605 mmHg 33%
    10:00 +26°C° 0 mm 1 m/s 606 mmHg 26%
    11:00 +27°C° 0 mm 1 m/s 606 mmHg 24%
    12:00 +28°C° 0 mm 1 m/s 606 mmHg 22%
    13:00 +29°C° 0 mm 1 m/s 606 mmHg 20%
    14:00 +28°C° 0 mm 1 m/s 605 mmHg 22%
    15:00 +27°C° 0 mm 1 m/s 604 mmHg 24%
    16:00 +26°C° 0 mm 1 m/s 603 mmHg 26%
    17:00 +23°C° 0 mm 1 m/s 603 mmHg 35%
    18:00 +20°C° 0 mm 1 m/s 602 mmHg 43%
    19:00 +16°C° 0 mm 1 m/s 601 mmHg 52%
    20:00 +15°C° 0 mm 1 m/s 602 mmHg 51%
    21:00 +15°C° 0 mm 1 m/s 602 mmHg 50%
    22:00 +14°C° 0 mm 1 m/s 602 mmHg 50%
    23:00 +14°C° 0 mm 1 m/s 602 mmHg 48%

    19 Décembre, Mardi

    Heure Température Précipitation Vent Pression Humidité
    00:00 +14°C° 0 mm 1 m/s 602 mmHg 47%
    01:00 +13°C° 0 mm 1 m/s 601 mmHg 45%
    02:00 +13°C° 0 mm 1 m/s 601 mmHg 45%
    03:00 +12°C° 0 mm 1 m/s 601 mmHg 44%
    04:00 +12°C° 0 mm 1 m/s 601 mmHg 43%
    05:00 +12°C° 0 mm 1 m/s 601 mmHg 43%
    06:00 +13°C° 0 mm 1 m/s 602 mmHg 43%
    07:00 +13°C° 0 mm 1 m/s 602 mmHg 43%
    08:00 +18°C° 0 mm 1 m/s 604 mmHg 37%
    09:00 +21°C° 0 mm 1 m/s 605 mmHg 30%
    10:00 +25°C° 0 mm 1 m/s 606 mmHg 24%
    11:00 +26°C° 0 mm 1 m/s 606 mmHg 23%
    12:00 +27°C° 0 mm 1 m/s 606 mmHg 22%
    13:00 +28°C° 0 mm 1 m/s 606 mmHg 21%
    14:00 +27°C° 0 mm 1 m/s 605 mmHg 24%
    15:00 +27°C° 0 mm 1 m/s 604 mmHg 26%
    16:00 +26°C° 0 mm 1 m/s 603 mmHg 28%
    17:00 +23°C° 0 mm 1 m/s 603 mmHg 37%
    18:00 +20°C° 0 mm 1 m/s 602 mmHg 46%
    19:00 +16°C° 0 mm 1 m/s 602 mmHg 55%
    20:00 +15°C° 0 mm 1 m/s 602 mmHg 55%
    21:00 +15°C° 0 mm 1 m/s 602 mmHg 55%
    22:00 +14°C° 0 mm 1 m/s 603 mmHg 56%
    23:00 +14°C° 0 mm 1 m/s 602 mmHg 53%
    Voir plus